| time (UTC) | temp F | wind direction | speed MPH | gust MPH | rain 1hr in | rain 24hr in | rain mn in | humidity % | barometer mb |
| 20260504023250 | 53 | 180 | 5.0 | 14.0 | 0.00 | 0.00 | 0.00 | 63 | 1007.6 |
| 20260504022251 | 53 | 164 | 5.0 | 14.0 | 0.00 | 0.00 | 0.00 | 63 | 1007.8 |
| 20260504021251 | 53 | 166 | 4.0 | 16.0 | 0.00 | 0.00 | 0.00 | 63 | 1007.8 |
| 20260504020248 | 53 | 135 | 4.0 | 14.0 | 0.00 | 0.00 | 0.00 | 63 | 1007.8 |
| 20260504015247 | 53 | 207 | 5.0 | 11.0 | 0.00 | 0.00 | 0.00 | 63 | 1007.8 |
| 20260504014246 | 53 | 207 | 4.0 | 9.0 | 0.00 | 0.00 | 0.00 | 62 | 1007.6 |
| 20260504013246 | 53 | 161 | 4.0 | 11.0 | 0.00 | 0.00 | 0.00 | 62 | 1007.7 |
| 20260504012248 | 53 | 248 | 4.0 | 9.0 | 0.00 | 0.00 | 0.00 | 61 | 1007.6 |
| 20260504011248 | 54 | 202 | 4.0 | 9.0 | 0.00 | 0.00 | 0.00 | 60 | 1007.7 |
| 20260504010242 | 55 | 156 | 4.0 | 14.0 | 0.00 | 0.00 | 0.00 | 59 | 1007.7 |
| 20260504005239 | 55 | 190 | 4.0 | 12.0 | 0.00 | 0.00 | 0.00 | 59 | 1007.7 |
| 20260504004241 | 56 | 188 | 5.0 | 14.0 | 0.00 | 0.00 | 0.00 | 58 | 1007.6 |
| 20260504003242 | 56 | 210 | 4.0 | 14.0 | 0.00 | 0.00 | 0.00 | 57 | 1007.5 |
| 20260504002239 | 57 | 259 | 4.0 | 14.0 | 0.00 | 0.00 | 0.00 | 55 | 1007.4 |
| 20260504001241 | 57 | 210 | 4.0 | 11.0 | 0.00 | 0.00 | 0.00 | 53 | 1007.3 |
| 20260504000241 | 57 | 238 | 4.0 | 12.0 | 0.00 | 0.00 | 0.00 | 52 | 1007.3 |
| 20260503235240 | 58 | 217 | 4.0 | 12.0 | 0.00 | 0.00 | 0.00 | 50 | 1007.2 |
| 20260503234243 | 58 | 257 | 4.0 | 14.0 | 0.00 | 0.00 | 0.00 | 50 | 1007.2 |
| 20260503233236 | 58 | 242 | 4.0 | 12.0 | 0.00 | 0.00 | 0.00 | 50 | 1007.1 |
| 20260503232235 | 58 | 126 | 4.0 | 12.0 | 0.00 | 0.00 | 0.00 | 49 | 1007.1 |
| 20260503231237 | 59 | 172 | 4.0 | 18.0 | 0.00 | 0.00 | 0.00 | 48 | 1007.2 |
| 20260503230234 | 59 | 246 | 4.0 | 12.0 | 0.00 | 0.00 | 0.00 | 47 | 1007.3 |
| 20260503225233 | 59 | 269 | 4.0 | 14.0 | 0.00 | 0.00 | 0.00 | 46 | 1007.5 |
| 20260503224233 | 60 | 240 | 4.0 | 14.0 | 0.00 | 0.00 | 0.00 | 45 | 1007.5 |
| 20260503223235 | 60 | 292 | 5.0 | 29.0 | 0.00 | 0.00 | 0.00 | 45 | 1007.5 |
| 20260503222235 | 60 | 236 | 7.0 | 27.0 | 0.00 | 0.00 | 0.00 | 45 | 1007.5 |
| 20260503221235 | 61 | 266 | 5.0 | 20.0 | 0.00 | 0.00 | 0.00 | 45 | 1007.4 |
| 20260503220229 | 60 | 343 | 5.0 | 14.0 | 0.00 | 0.00 | 0.00 | 45 | 1007.6 |
| 20260503215230 | 60 | 182 | 7.0 | 29.0 | 0.00 | 0.00 | 0.00 | 43 | 1007.5 |
| 20260503214229 | 61 | 184 | 5.0 | 18.0 | 0.00 | 0.00 | 0.00 | 42 | 1007.6 |
| 20260503213231 | 61 | 260 | 5.0 | 16.0 | 0.00 | 0.00 | 0.00 | 43 | 1007.6 |
| 20260503212228 | 61 | 261 | 7.0 | 16.0 | 0.00 | 0.00 | 0.00 | 41 | 1007.4 |
| 20260503211228 | 61 | 198 | 5.0 | 25.0 | 0.00 | 0.00 | 0.00 | 40 | 1007.5 |
| 20260503210227 | 61 | 74 | 5.0 | 14.0 | 0.00 | 0.00 | 0.00 | 42 | 1007.6 |
| 20260503205227 | 62 | 266 | 5.0 | 23.0 | 0.00 | 0.00 | 0.00 | 41 | 1007.6 |
| 20260503204228 | 61 | 168 | 5.0 | 18.0 | 0.00 | 0.00 | 0.00 | 42 | 1007.6 |
| 20260503203228 | 61 | 256 | 5.0 | 14.0 | 0.00 | 0.00 | 0.00 | 43 | 1007.8 |
| 20260503202229 | 61 | 195 | 4.0 | 11.0 | 0.00 | 0.00 | 0.00 | 42 | 1007.7 |
| 20260503201227 | 61 | 228 | 7.0 | 22.0 | 0.00 | 0.00 | 0.00 | 42 | 1007.8 |
| 20260503200228 | 61 | 244 | 4.0 | 18.0 | 0.00 | 0.00 | 0.00 | 41 | 1008.0 |
| 20260503195228 | 61 | 175 | 5.0 | 16.0 | 0.00 | 0.00 | 0.00 | 40 | 1008.0 |
| 20260503194226 | 62 | 266 | 5.0 | 16.0 | 0.00 | 0.00 | 0.00 | 39 | 1008.2 |
| 20260503193230 | 62 | 198 | 4.0 | 16.0 | 0.00 | 0.00 | 0.00 | 43 | 1008.3 |
| 20260503192232 | 62 | 275 | 4.0 | 14.0 | 0.00 | 0.00 | 0.00 | 42 | 1008.3 |
| 20260503191224 | 60 | 238 | 7.0 | 22.0 | 0.00 | 0.00 | 0.00 | 44 | 1008.6 |
| 20260503190226 | 60 | 238 | 5.0 | 12.0 | 0.00 | 0.00 | 0.00 | 45 | 1008.6 |
| 20260503185226 | 61 | 15 | 4.0 | 12.0 | 0.00 | 0.00 | 0.00 | 44 | 1008.9 |
| 20260503184227 | 62 | 147 | 5.0 | 16.0 | 0.00 | 0.00 | 0.00 | 45 | 1009.0 |
| 20260503183227 | 60 | 215 | 5.0 | 18.0 | 0.00 | 0.00 | 0.00 | 45 | 1009.1 |
| 20260503182230 | 58 | 163 | 5.0 | 16.0 | 0.00 | 0.00 | 0.00 | 45 | 1009.3 |
| 20260503181226 | 59 | 263 | 5.0 | 20.0 | 0.00 | 0.00 | 0.00 | 44 | 1009.4 |
| 20260503180229 | 59 | 253 | 7.0 | 27.0 | 0.00 | 0.00 | 0.00 | 43 | 1009.5 |
| 20260503175222 | 60 | 223 | 5.0 | 23.0 | 0.00 | 0.00 | 0.00 | 43 | 1009.5 |
| 20260503174218 | 60 | 254 | 5.0 | 20.0 | 0.00 | 0.00 | 0.00 | 43 | 1009.6 |
| 20260503173218 | 60 | 267 | 4.0 | 18.0 | 0.00 | 0.00 | 0.00 | 44 | 1009.7 |
| 20260503172222 | 59 | 262 | 5.0 | 16.0 | 0.00 | 0.00 | 0.00 | 43 | 1009.9 |
| 20260503171219 | 59 | 294 | 5.0 | 20.0 | 0.00 | 0.00 | 0.00 | 43 | 1010.1 |
| 20260503170218 | 58 | 167 | 5.0 | 16.0 | 0.00 | 0.00 | 0.00 | 44 | 1010.2 |
| 20260503160218 | 56 | 168 | 4.0 | 14.0 | 0.00 | 0.00 | 0.00 | 46 | 1011.1 |
| 20260503150211 | 57 | 154 | 4.0 | 16.0 | 0.00 | 0.00 | 0.00 | 45 | 1011.1 |
| 20260503140210 | 54 | 5 | 5.0 | 25.0 | 0.00 | 0.00 | 0.00 | 46 | 1011.4 |
| 20260503131210 | 50 | 189 | 2.0 | 9.0 | 0.00 | 0.00 | 0.00 | 51 | 1011.7 |
| 20260503130210 | 49 | 186 | 2.0 | 11.0 | 0.00 | 0.00 | 0.00 | 54 | 1011.7 |
| 20260503120206 | 43 | 134 | 2.0 | 5.0 | 0.00 | 0.00 | 0.00 | 60 | 1011.9 |
| 20260503110202 | 38 | 208 | 2.0 | 11.0 | 0.00 | 0.00 | 0.00 | 66 | 1011.9 |
| 20260503100155 | 33 | 173 | 0.0 | 0.0 | 0.00 | 0.00 | 0.00 | 79 | 1012.3 |
| 20260503090156 | 33 | 173 | 0.0 | 0.0 | 0.00 | 0.00 | 0.00 | 79 | 1012.9 |
| 20260503081152 | 33 | 173 | 0.0 | 0.0 | 0.00 | 0.00 | 0.00 | 76 | 1013.1 |
| 20260503080151 | 33 | 173 | 0.0 | 0.0 | 0.00 | 0.00 | 0.00 | 78 | 1013.1 |
| 20260503072151 | 34 | 173 | 0.0 | 0.0 | 0.00 | 0.00 | 0.00 | 79 | 1013.2 |
| 20260503071152 | 34 | 173 | 0.0 | 0.0 | 0.00 | 0.00 | 0.00 | 79 | 1013.2 |
| 20260503070152 | 34 | 173 | 0.0 | 0.0 | 0.00 | 0.00 | 0.00 | 77 | 1013.3 |
| 20260503060149 | 34 | 173 | 0.0 | 0.0 | 0.00 | 0.00 | 0.00 | 78 | 1013.7 |
| 20260503054150 | 34 | 173 | 0.0 | 0.0 | 0.00 | 0.00 | 0.00 | 79 | 1013.8 |
| 20260503053150 | 34 | 173 | 0.0 | 0.0 | 0.00 | 0.00 | 0.00 | 79 | 1013.8 |
| 20260503052149 | 35 | 173 | 0.0 | 0.0 | 0.00 | 0.00 | 0.00 | 78 | 1013.8 |
| 20260503051150 | 35 | 173 | 0.0 | 0.0 | 0.00 | 0.00 | 0.00 | 77 | 1013.9 |
| 20260503050149 | 36 | 173 | 0.0 | 0.0 | 0.00 | 0.00 | 0.00 | 75 | 1013.9 |
| 20260503045144 | 37 | 173 | 0.0 | 0.0 | 0.00 | 0.00 | 0.00 | 73 | 1013.9 |
| 20260503044141 | 38 | 173 | 0.0 | 0.0 | 0.00 | 0.00 | 0.00 | 71 | 1014.0 |
| 20260503043143 | 38 | 173 | 0.0 | 0.0 | 0.00 | 0.00 | 0.00 | 70 | 1014.0 |
| 20260503042142 | 38 | 173 | 0.0 | 0.0 | 0.00 | 0.00 | 0.00 | 70 | 1014.0 |
| 20260503041143 | 39 | 173 | 0.0 | 2.0 | 0.00 | 0.00 | 0.00 | 69 | 1014.1 |
| 20260503040144 | 39 | 173 | 0.0 | 2.0 | 0.00 | 0.00 | 0.00 | 70 | 1014.1 |
| 20260503035141 | 39 | 173 | 0.0 | 4.0 | 0.00 | 0.00 | 0.00 | 69 | 1014.1 |
| 20260503034140 | 39 | 207 | 0.0 | 2.0 | 0.00 | 0.00 | 0.00 | 68 | 1014.1 |
| 20260503033143 | 39 | 207 | 0.0 | 2.0 | 0.00 | 0.00 | 0.00 | 68 | 1014.2 |
| 20260503032139 | 39 | 207 | 0.0 | 4.0 | 0.00 | 0.00 | 0.00 | 68 | 1014.3 |
| 20260503031137 | 39 | 292 | 0.0 | 0.0 | 0.00 | 0.00 | 0.00 | 70 | 1014.3 |
| 20260503030136 | 39 | 320 | 0.0 | 0.0 | 0.00 | 0.00 | 0.00 | 70 | 1014.4 |
| 20260503025135 | 38 | 320 | 0.0 | 0.0 | 0.00 | 0.00 | 0.00 | 71 | 1014.5 |
| 20260503024137 | 38 | 337 | 0.0 | 0.0 | 0.00 | 0.00 | 0.00 | 74 | 1014.5 |